Location: Ariel
(45.9570°N, 122.5700°W)
Time: 07:01:41
(UTC-07:00)

Courier 1B - All Passes

Search period start: 23 July 2019 00:00
Search period end: 02 August 2019 00:00
Orbit: 963 x 1209 km, 28.3° (Epoch: 22 July)

Date Brightness Start Highest point End Pass type
(mag) Time Alt. Az. Time Alt. Az. Time Alt. Az.
23 Jul - 06:02:28 10° S 06:04:38 11° SSE 06:06:49 10° SE daylight
23 Jul - 07:52:30 10° SW 07:57:34 19° S 08:02:31 10° SE daylight
23 Jul - 09:45:41 10° SW 09:50:34 18° S 09:55:18 10° SSE daylight
23 Jul - 11:42:28 10° SSW 11:43:20 10° SSW 11:44:13 10° SSW daylight
24 Jul - 06:59:09 10° SSW 07:03:58 18° S 07:08:42 10° SE daylight
24 Jul - 08:51:46 10° SW 08:56:59 20° S 09:02:04 10° SE daylight
24 Jul - 10:46:39 10° SW 10:49:52 13° SSW 10:53:00 10° S daylight
25 Jul - 06:06:02 10° SSW 06:10:22 16° SSE 06:14:40 10° SE daylight
25 Jul - 07:58:01 10° SW 08:03:23 20° S 08:08:38 10° SE daylight
25 Jul - 09:52:07 10° SW 09:56:20 16° SSW 10:00:29 10° SSE daylight
26 Jul - 05:13:19 10° S 05:16:47 13° SSE 05:20:15 10° SE visible
26 Jul - 07:04:24 10° SW 07:09:46 20° S 07:15:02 10° SE daylight
26 Jul - 08:57:55 10° SW 09:02:47 18° SSW 09:07:32 10° SSE daylight
27 Jul - 04:21:30 10° S 04:23:14 11° SSE 04:24:58 10° SE visible
27 Jul - 06:10:59 10° SSW 06:16:08 19° S 06:21:16 10° SE daylight
27 Jul - 08:03:56 10° SW 08:09:12 20° S 08:14:20 10° SE daylight
27 Jul - 09:59:32 10° SW 10:02:03 12° SSW 10:04:33 10° S daylight
28 Jul - 05:17:45 10° SSW 05:22:31 17° SSE 05:27:19 10° SE daylight
28 Jul - 07:10:08 10° SW 07:15:34 20° S 07:20:57 10° SE daylight
28 Jul - 09:04:38 10° SW 09:08:32 15° SSW 09:12:23 10° SSE daylight
29 Jul - 04:24:49 10° SSW 04:28:56 15° SSE 04:33:05 10° SE visible
29 Jul - 06:16:29 10° SW 06:21:56 21° S 06:27:22 10° SE daylight
29 Jul - 08:10:19 10° SW 08:14:58 17° SSW 08:19:34 10° SSE daylight
30 Jul - 03:32:23 10° S 03:35:23 13° SSE 03:38:25 10° SE visible
30 Jul - 05:23:00 10° SW 05:28:18 20° S 05:33:37 10° SE daylight
30 Jul - 07:16:16 10° SW 07:21:21 19° S 07:26:25 10° SSE daylight
30 Jul - 09:13:36 10° SSW 09:14:13 10° SSW 09:14:49 10° SSW daylight
31 Jul - 04:29:44 10° SSW 04:34:41 19° S 04:39:43 10° SE visible
31 Jul - 06:22:25 10° SW 06:27:44 20° S 06:33:04 10° SE daylight
31 Jul - 08:17:28 10° SW 08:20:41 13° SSW 08:23:53 10° S daylight
01 Aug - 03:36:41 10° SSW 03:41:06 17° SSE 03:45:36 10° SE visible
01 Aug - 05:28:45 10° SW 05:34:06 20° S 05:39:31 10° SE daylight
01 Aug - 07:22:55 10° SW 07:27:07 15° SSW 07:31:19 10° SSE daylight
